Overview Statistics Trail Chart Weather Telemetry Raw packets
 

This is the latest recevied weather packets stored in our database for station/object LU3HGB-WX. If no packets are shown the sender has not sent any weather packets the latest 10 day(s).

<< 87 88 89 90 91 92 93 >>
Time Temp. Humidity Pressure Rain* Wind** Luminosity Snow
1788046059 10.56° C 64% 1016 hPa 0 mm - 0 W/m² -
1788045759 11.11° C 63% 1016 hPa 0 mm - 0 W/m² -
1788045460 11.67° C 62% 1016 hPa 0 mm - 0 W/m² -
1788045159 12.22° C 60% 1016 hPa 0 mm - 0 W/m² -
1788044868 12.22° C 58% 1016 hPa 0 mm - 0 W/m² -
1788044559 12.22° C 60% 1015 hPa 0 mm - 0 W/m² -
1788044260 12.78° C 59% 1015 hPa 0 mm - 0 W/m² -
1788043960 13.33° C 57% 1015 hPa 0 mm - 0 W/m² -
1788043659 13.89° C 53% 1015 hPa 0 mm - 0 W/m² -
1788043359 13.89° C 53% 1015 hPa 0 mm - 0 W/m² -
1788043060 14.44° C 54% 1015 hPa 0 mm - 0 W/m² -
1788042759 14.44° C 53% 1015 hPa 0 mm - 0 W/m² -
1788042459 15.56° C 51% 1015 hPa 0 mm - 0 W/m² -
1788042159 15.56° C 48% 1014 hPa 0 mm - 0 W/m² -
1788041859 16.11° C 46% 1014 hPa 0 mm - 1 W/m² -
1788041560 16.67° C 47% 1014 hPa 0 mm - 1 W/m² -
1788041260 16.67° C 43% 1014 hPa 0 mm - 2 W/m² -
1788040960 17.22° C 42% 1014 hPa 0 mm - 5 W/m² -
1788040660 17.22° C 42% 1014 hPa 0 mm - 6 W/m² -
1788040359 17.22° C 41% 1014 hPa 0 mm - 10 W/m² -
1788040059 17.78° C 41% 1014 hPa 0 mm - 13 W/m² -
1788039760 17.78° C 41% 1014 hPa 0 mm - 18 W/m² -
1788039460 17.78° C 41% 1013 hPa 0 mm - 27 W/m² -
1788039159 18.33° C 40% 1013 hPa 0 mm - 37 W/m² -
1788038859 18.33° C 40% 1013 hPa 0 mm - 36 W/m² -

* Rain latest hour (hover to see other rain measurements)
** Current wind speed in m/s (hover to see current wind gust speed)